EW1898 Weather Reports


time (UTC)temp
F
wind
direction
speed
knots
gust
knots
rain 1hr
in
rain 24hr
in
rain mn
in
humidity
%
barometer
mb
20260904093024 64 130 0.0 0.0 0.00 0.05 0.00 99 1009.4
20260904091523 64 130 0.0 0.0 0.00 0.05 0.00 99 1009.4
20260904090022 64 130 0.0 0.0 0.00 0.05 0.00 99 1009.4
20260904084521 64 130 0.0 0.0 0.00 0.08 0.00 99 1009.4
20260904083020 64 130 0.0 0.0 0.00 0.08 0.00 99 1009.4
20260904081518 64 130 0.0 0.0 0.00 0.08 0.00 99 1009.6
20260904080017 64 130 0.0 0.0 0.00 0.08 0.00 99 1009.8
20260904074517 64 130 0.0 0.0 0.00 0.08 0.00 99 1009.8
20260904073015 64 130 0.0 0.0 0.00 0.08 0.00 99 1009.7
20260904071514 64 130 0.0 0.0 0.00 0.08 0.00 99 1009.7
20260904070015 64 130 0.0 0.0 0.00 0.08 0.00 99 1009.8
20260904064512 64 130 0.0 0.0 0.00 0.08 0.00 99 1009.9
20260904063011 64 130 0.0 0.0 0.00 0.08 0.00 99 1010.1
20260904061512 64 130 0.0 0.0 0.00 0.08 0.00 99 1010.1
20260904060007 64 130 0.0 0.0 0.00 0.08 0.00 99 1010.4
20260904054507 65 130 0.0 0.0 0.00 0.08 0.00 99 1010.6
20260904053005 65 130 0.0 0.0 0.00 0.08 0.00 99 1010.8
20260904051509 65 130 0.0 1.7 0.00 0.08 0.00 99 1010.9
20260904050003 65 130 0.0 1.7 0.00 0.08 0.00 99 1010.8
20260904044602 65 132 0.0 2.6 0.00 0.08 0.00 98 1010.9
20260904043119 65 168 0.0 0.9 0.00 0.08 0.00 98 1011.0
20260904041559 65 170 0.0 2.6 0.00 0.08 0.00 98 1011.2
20260904040054 65 135 0.0 3.5 0.00 0.08 0.00 98 1011.3
20260904034554 66 123 0.0 1.7 0.00 0.08 0.08 98 1011.2
20260904033054 66 92 0.0 0.0 0.00 0.08 0.08 98 1011.4
20260904031555 67 92 0.0 0.0 0.00 0.08 0.08 98 1011.2
20260904030052 67 92 0.0 0.0 0.00 0.08 0.08 98 1011.3
20260904024554 67 92 0.0 1.7 0.00 0.08 0.08 97 1011.3
20260904023054 67 87 0.0 0.9 0.00 0.08 0.08 98 1011.5
20260904021556 68 359 0.0 0.9 0.00 0.08 0.08 98 1011.6
20260904020050 67 355 0.0 0.0 0.00 0.08 0.08 97 1011.6
20260904014630 68 355 0.0 0.0 0.00 0.08 0.08 97 1011.7
20260904013056 68 355 0.0 0.0 0.00 0.08 0.08 97 1011.8
20260904011549 68 355 0.0 0.0 0.00 0.08 0.08 97 1012.0
20260904010050 68 355 0.0 0.0 0.00 0.08 0.08 96 1011.9
20260904004548 68 355 0.0 0.0 0.00 0.08 0.08 96 1011.7
20260904003050 68 355 0.0 0.9 0.00 0.08 0.08 96 1011.4
20260904001548 69 355 0.0 0.9 0.00 0.08 0.08 96 1011.2
20260904000130 69 355 0.0 0.9 0.00 0.08 0.08 95 1011.1
20260903234550 69 355 0.0 0.0 0.00 0.08 0.08 94 1011.1
20260903233046 70 355 0.0 0.0 0.00 0.08 0.08 94 1011.0
20260903231548 71 355 0.0 0.9 0.00 0.08 0.08 92 1011.1
20260903230047 72 355 0.0 0.0 0.00 0.08 0.08 90 1011.4
20260903224550 73 355 0.0 0.9 0.00 0.08 0.08 89 1011.0
20260903223040 73 340 0.0 0.0 0.00 0.08 0.08 88 1011.2
20260903221539 73 340 0.0 0.0 0.00 0.08 0.08 87 1011.7
20260903220038 74 298 0.0 0.0 0.00 0.08 0.08 87 1011.5
20260903214547 74 298 0.0 0.0 0.00 0.08 0.08 86 1011.5
20260903213039 74 298 0.0 0.0 0.00 0.08 0.08 87 1011.4
20260903211542 73 298 0.0 0.0 0.00 0.08 0.08 88 1011.6
20260903210042 74 298 0.0 1.7 0.00 0.08 0.08 85 1011.5
20260903204532 74 134 0.0 0.9 0.00 0.08 0.08 86 1011.5
20260903203037 73 134 0.0 0.9 0.00 0.08 0.08 87 1011.6
20260903201525 73 101 0.0 2.6 0.00 0.08 0.08 85 1011.6
20260903200026 73 306 0.0 0.9 0.00 0.08 0.08 87 1011.8
20260903194516 72 94 0.0 1.7 0.00 0.08 0.08 87 1012.0
20260903193013 71 99 0.0 1.7 0.00 0.08 0.08 88 1012.2
20260903191519 71 99 0.0 0.9 0.00 0.08 0.08 89 1012.3
20260903190007 70 99 0.0 1.7 0.00 0.08 0.08 89 1012.3
20260903184504 70 144 0.0 1.7 0.00 0.08 0.08 89 1012.6
20260903183006 70 299 0.0 1.7 0.00 0.08 0.08 90 1012.7
20260903181601 69 312 0.0 1.7 0.00 0.08 0.08 91 1012.8
20260903180059 69 240 0.0 1.7 0.00 0.08 0.08 91 1013.0
20260903174556 69 292 0.0 0.9 0.00 0.08 0.08 91 1013.2
20260903173056 68 296 0.0 1.7 0.00 0.08 0.08 92 1013.4
20260903171556 68 297 0.0 1.7 0.00 0.08 0.08 92 1013.2
20260903170059 68 291 0.0 1.7 0.00 0.08 0.08 93 1013.0
20260903164554 67 291 0.0 1.7 0.00 0.08 0.08 93 1013.1
20260903163102 67 274 0.0 1.7 0.00 0.08 0.08 94 1013.2
20260903161548 67 175 0.0 2.6 0.00 0.08 0.08 95 1013.2
20260903160043 66 293 0.0 1.7 0.00 0.08 0.08 95 1013.3
20260903154540 65 293 0.0 2.6 0.00 0.08 0.08 96 1013.4
20260903153037 65 293 0.0 1.7 0.00 0.08 0.08 97 1013.7
20260903151536 65 293 0.0 0.9 0.00 0.08 0.08 97 1013.7
20260903150047 64 293 0.0 0.9 0.00 0.08 0.08 97 1013.9
20260903144534 64 293 0.0 0.9 0.00 0.08 0.08 97 1014.2
20260903143036 63 293 0.0 0.9 0.00 0.08 0.08 98 1013.9
20260903141535 63 293 0.0 2.6 0.00 0.08 0.08 98 1014.0
20260903140029 63 341 0.0 0.0 0.00 0.08 0.08 98 1014.5
20260903134528 62 341 0.0 0.0 0.00 0.08 0.08 98 1014.6
20260903133028 62 342 0.0 0.0 0.00 0.08 0.08 98 1014.5
20260903131526 62 341 0.0 0.0 0.00 0.08 0.08 98 1014.3
20260903130024 62 342 0.0 0.0 0.00 0.08 0.08 98 1014.4
20260903124525 62 342 0.0 0.0 0.00 0.08 0.08 98 1014.5
20260903123028 61 341 0.0 0.0 0.00 0.08 0.08 98 1014.8
20260903121520 61 341 0.0 0.0 0.00 0.08 0.08 98 1014.9
20260903120018 61 342 0.0 0.9 0.00 0.08 0.08 98 1015.1
20260903114520 61 340 0.0 0.9 0.00 0.08 0.08 98 1015.2
20260903113017 61 340 0.0 0.0 0.00 0.08 0.08 98 1015.3
20260903111516 61 340 0.0 0.0 0.00 0.08 0.08 98 1015.3
20260903110016 60 340 0.0 0.9 0.00 0.08 0.08 98 1015.3
20260903104516 60 340 0.0 0.9 0.01 0.08 0.08 97 1015.3
20260903103015 60 340 0.0 0.9 0.02 0.08 0.08 97 1015.3
20260903101514 60 341 0.0 0.0 0.03 0.08 0.08 97 1015.2
20260903100022 60 341 0.0 0.9 0.05 0.08 0.08 97 1015.1
20260903094511 60 341 0.0 0.9 0.04 0.07 0.07 96 1015.2